Temperature
20 21 20 21 20 20 20 20 20 20 20 20 19 19 19 19 19 19 19 19 19 19 18 18 18 18 18 18 18 18 18 18 18 18 18 17 17 17 17 17 17 17 17
21 21 20 21 20 20 20 20 20 20 20 19 19 19 19 19 19 19 19 19 19 18 18 18 18 18 18 18 18 18 18 18 18 18 17 17 17 17 17 17 17 17 17
22 21 21 21 20 20 20 20 20 19 19 19 19 19 19 19 19 19 19 18 18 18 18 18 18 18 18 18 18 18 18 18 18 17 17 17 17 17 17 17 17 17 17
22 21 21 21 20 20 20 20 19 19 19 19 19 19 19 19 18 18 18 18 18 18 18 18 18 18 18 18 18 17 17 17 17 17 17 17 17 17 17 17 17 17 17
22 21 21 21 20 20 20 20 19 19 19 19 19 19 18 18 18 18 18 18 18 18 18 18 18 18 18 17 17 17 17 17 17 17 17 17 17 17 17 17 17 17 17
22 21 21 21 20 20 20 20 19 19 19 19 19 18 18 18 18 18 18 18 18 18 18 18 18 18 18 17 17 17 17 17 17 17 17 17 17 17 17 17 17 17 17
22 21 21 21 20 20 20 20 19 19 19 19 18 18 18 18 18 18 18 18 18 18 18 18 18 18 18 17 17 17 17 17 17 17 17 17 17 17 17 17 17 17 17
22 21 21 21 20 20 20 19 19 19 19 18 18 18 18 18 18 18 18 18 18 18 18 18 18 18 18 17 17 17 17 17 17 18 18 18 17 17 17 17 17 17 17
22 21 21 21 20 20 20 19 19 19 19 18 18 18 18 18 18 18 18 18 18 18 18 18 18 18 18 17 17 17 17 17 18 18 18 18 17 17 17 17 17 17 17
21 21 21 21 20 20 20 19 19 19 19 18 18 18 18 18 18 18 18 18 18 18 18 18 18 18 18 17 17 17 17 17 18 18 18 18 18 17 17 17 17 17 17
21 21 21 21 20 20 20 19 19 19 18 18 18 18 18 18 18 18 18 18 18 18 18 18 18 18 18 18 17 17 18 18 18 18 18 18 18 17 17 17 17 17 17
21 21 21 21 20 20 20 19 19 18 18 18 18 18 18 18 18 18 18 18 18 18 18 18 18 18 18 18 17 17 18 18 18 18 18 18 18 18 17 17 17 17 17
21 21 20 20 20 20 20 19 19 19 18 18 18 18 18 18 18 18 18 18 18 18 18 18 18 18 18 18 17 18 18 17 18 18 18 18 17 18 17 17 17 17 17
21 21 21 20 20 20 20 20 19 19 19 18 18 18 18 18 18 18 18 18 18 18 18 18 18 18 18 18 18 18 18 17 18 18 18 17 17 17 17 17 17 17 17
21 21 20 20 20 20 20 19 19 19 19 18 18 18 18 18 18 18 18 18 18 18 18 18 18 18 18 17 17 17 17 17 17 17 17 17 17 17 17 17 17 17 17
20 20 20 20 20 20 19 19 19 19 19 18 18 18 18 18 18 18 18 18 18 18 17 17 17 17 17 17 17 17 17 17 17 17 17 17 17 17 17 17 17 17 17
20 20 20 20 20 19 19 19 19 19 19 18 18 18 18 18 18 18 18 17 17 17 17 17 17 17 17 17 17 17 17 17 17 17 17 17 17 17 17 17 17 17 17
20 20 19 19 19 19 19 19 19 18 18 18 18 18 18 18 18 18 18 17 17 17 17 17 17 17 17 17 17 17 17 17 17 17 17 17 17 17 17 17 16 16 16
20 20 19 19 19 19 19 18 18 18 18 18 18 18 18 18 18 18 18 17 17 17 17 17 17 17 17 17 17 17 17 17 17 17 17 17 17 16 16 16 16 16 16
20 20 19 19 19 19 18 18 18 18 18 18 18 18 18 18 18 17 17 17 17 17 17 17 17 17 17 17 17 17 17 17 17 17 17 16 16 16 16 16 16 16 16
20 19 19 19 19 18 18 18 18 18 18 18 18 18 18 17 17 17 17 17 17 17 17 17 17 17 17 17 17 17 17 17 17 17 17 16 16 16 16 16 16 16 16
20 19 19 19 19 18 18 18 18 18 18 18 18 18 17 17 17 17 17 17 17 17 17 17 17 17 17 17 17 17 17 17 17 17 17 17 17 16 16 16 16 16 16
20 19 19 19 19 18 18 18 17 17 17 17 17 17 17 17 17 17 17 17 17 17 17 17 17 17 17 17 17 17 17 17 17 17 17 17 17 17 16 16 16 16 16
20 19 19 19 18 18 18 18 18 17 17 18 18 17 17 17 17 17 17 17 17 17 17 17 17 17 17 17 17 17 17 17 17 17 17 17 17 17 17 17 16 16 16
20 19 19 18 18 18 18 18 18 18 18 18 17 17 17 17 17 17 17 17 17 17 17 17 17 17 17 17 17 17 17 17 17 17 17 17 17 17 17 17 17 16 16
19 19 18 18 18 18 17 17 18 18 17 17 17 17 17 17 17 17 17 17 17 17 17 17 17 17 17 17 17 17 17 17 17 17 17 17 17 17 17 17 17 17 17
Wind_Speed
11 14 21 21 21 21 20 20 20 19 19 19 19 20 20 20 20 19 19 18 17 17 17 17 17 17 18 18 19 19 20 20 20 20 19 19 20 21 20 20 19 18 20
15 18 22 22 21 21 21 20 20 19 19 18 18 19 19 19 19 18 18 17 17 17 17 17 17 17 17 18 18 19 19 19 20 19 19 19 19 19 19 19 18 17 19
18 18 22 22 22 21 21 21 20 19 19 18 18 18 18 18 18 18 17 17 17 17 16 16 16 16 17 17 17 18 18 18 19 19 18 16 18 19 19 19 19 19 18
18 18 20 23 22 22 21 21 20 19 18 18 17 17 18 18 18 18 17 17 17 17 16 15 15 15 15 16 16 16 16 16 17 17 14 14 16 18 18 18 18 18 17
15 17 21 24 23 22 21 21 20 19 19 18 17 17 17 17 17 17 17 17 17 16 16 15 14 14 14 14 13 13 13 14 15 15 13 14 15 17 17 17 17 17 17
14 16 22 24 23 22 21 21 20 19 19 18 17 17 17 17 17 17 17 17 16 16 15 14 13 13 12 12 11 10 11 14 15 15 14 14 14 16 17 16 16 16 16
14 14 21 23 23 22 21 21 20 19 19 18 18 17 17 17 17 17 17 16 16 15 14 13 12 11 11 10 9 9 10 14 15 14 13 13 14 16 16 16 16 16 15
16 14 20 23 23 22 21 21 20 19 19 19 18 18 17 17 17 17 16 16 15 14 13 11 10 9 9 8 8 9 11 15 15 14 13 13 15 15 15 15 15 15 15
14 13 13 19 21 22 21 21 20 19 19 19 19 18 17 17 16 16 15 15 14 13 11 10 9 7 7 7 7 9 12 16 15 13 13 13 15 15 15 14 14 14 14
13 12 10 13 16 17 18 20 20 19 19 18 18 18 17 17 16 15 14 14 13 11 10 8 7 6 5 5 6 9 13 16 14 13 12 13 15 15 14 14 13 13 13
14 11 10 10 12 14 16 19 19 19 18 18 17 18 16 14 14 13 13 13 12 10 9 7 6 5 3 3 5 9 11 12 13 12 12 14 15 14 14 14 13 13 13
17 14 12 12 11 13 14 15 14 14 15 13 13 14 13 12 12 12 13 12 11 9 8 6 5 3 2 2 4 8 10 12 11 11 12 15 15 14 14 13 13 13 12
18 16 14 13 12 10 8 11 10 11 12 11 12 13 12 11 9 9 8 8 8 7 4 3 3 1 1 1 4 6 10 11 10 10 13 15 15 14 13 13 12 12 12
17 16 16 14 12 9 10 9 8 8 8 8 11 13 10 7 6 7 6 6 5 4 3 3 2 1 1 2 5 8 10 10 10 11 13 15 15 14 13 13 12 12 12
17 16 17 15 14 11 9 8 9 8 8 10 11 12 12 7 5 5 5 5 5 5 4 3 2 1 1 2 5 9 9 10 11 11 12 14 14 14 13 13 12 12 12
17 17 16 16 14 13 11 8 8 9 10 10 10 12 13 12 8 6 4 4 5 5 5 4 3 2 2 2 4 8 9 10 11 12 12 13 13 13 13 12 12 12 12
16 16 16 16 15 15 12 10 8 9 11 9 10 13 14 14 11 8 4 4 5 6 5 3 3 3 2 2 4 5 7 9 10 10 11 11 12 13 13 12 12 12 11
14 15 16 16 15 14 11 8 7 8 9 8 11 12 13 14 13 9 5 4 6 6 4 3 2 2 2 2 3 3 4 6 8 10 11 11 11 11 12 13 13 12 12
14 15 15 13 14 13 10 7 6 7 7 8 10 10 11 13 13 9 5 5 7 4 2 3 2 2 2 2 2 2 3 4 5 8 8 11 12 12 12 13 14 13 13
13 14 14 13 13 12 9 6 5 6 6 6 7 9 11 11 12 9 6 5 6 4 3 3 3 2 2 2 2 2 1 2 3 4 6 9 11 13 13 12 13 13 14
11 13 13 13 12 11 8 7 6 6 7 6 5 9 11 11 11 8 5 5 4 5 4 4 3 2 1 2 3 2 3 1 2 3 4 5 7 12 13 14 13 12 12
12 12 12 13 13 12 10 8 5 5 5 6 5 7 10 10 11 9 6 5 5 4 4 4 3 2 1 2 3 3 2 3 3 2 3 4 5 7 9 13 14 14 13
12 13 13 12 12 11 10 7 6 4 4 4 5 6 7 10 10 9 8 6 5 5 5 4 4 4 2 1 2 4 3 3 2 3 3 3 4 4 5 9 13 14 14
11 10 11 12 12 11 11 11 11 8 7 6 6 6 6 8 9 10 9 7 6 5 5 5 4 4 4 2 0 1 3 4 3 1 3 2 3 5 5 5 9 13 15
10 10 9 10 11 11 12 12 11 8 6 5 6 7 7 6 7 9 9 7 6 5 5 5 4 4 3 3 2 1 1 1 2 3 2 3 2 3 4 5 6 9 14
9 9 9 10 10 11 12 12 12 11 10 9 8 9 8 5 5 7 7 6 6 5 5 5 5 5 4 3 3 2 2 2 2 3 3 3 3 4 3 4 4 7 12
Wind_Direction
148 152 146 139 135 130 125 120 116 113 110 108 107 106 105 106 108 110 111 112 112 111 109 108 107 106 106 107 108 109 110 111 110 109 109 111 111 108 107 105 103 102 105
147 151 146 141 137 134 130 126 122 119 116 114 111 110 110 111 112 112 113 114 114 112 111 110 109 108 108 108 110 111 111 111 111 109 107 109 111 110 107 107 106 106 105
142 147 145 142 139 137 134 130 127 125 122 119 117 116 115 115 115 115 116 115 114 114 113 112 111 110 110 110 111 113 113 112 110 107 105 104 108 109 109 108 108 106 106
140 143 144 142 141 139 137 134 133 130 128 125 122 121 119 118 118 118 118 117 116 115 114 113 112 112 111 112 113 115 116 115 114 111 106 106 110 112 111 110 109 109 108
137 140 145 144 143 141 139 137 136 135 132 129 127 124 123 122 121 120 120 119 118 117 116 115 113 113 112 112 113 115 117 118 117 115 108 106 113 115 114 113 112 112 111
136 140 146 145 144 143 142 141 140 138 136 134 132 129 127 125 123 123 123 121 120 118 117 116 114 113 111 111 109 109 116 120 118 116 114 113 117 120 119 117 115 114 114
138 142 146 146 146 145 145 144 142 141 139 138 135 132 130 128 127 125 125 124 123 122 121 120 118 116 113 110 104 99 112 126 126 122 120 119 123 123 122 122 120 118 117
144 143 147 148 148 148 147 146 145 143 141 140 138 135 133 132 130 129 128 128 128 128 126 125 124 122 117 109 98 96 113 131 131 129 125 124 128 126 126 126 124 122 122
145 143 146 150 151 151 150 149 148 146 144 142 141 139 138 136 134 133 133 133 133 133 133 132 130 126 117 104 94 97 120 134 128 132 133 132 133 132 131 130 129 128 127
144 146 145 147 149 150 151 152 151 150 148 146 145 144 144 142 140 139 139 139 139 140 140 140 137 132 123 111 100 99 125 135 135 135 137 142 141 139 138 137 136 135 134
150 152 151 149 148 149 151 155 154 153 153 151 150 149 146 142 142 144 147 148 148 149 148 147 146 142 130 113 103 106 123 136 136 139 147 149 147 145 143 143 142 142 141
161 163 163 158 155 156 158 150 151 152 153 152 153 147 145 148 152 153 158 157 156 156 154 157 157 145 112 93 97 107 122 135 138 145 154 155 152 150 149 148 147 147 147
166 166 166 164 163 163 151 150 151 149 152 155 157 154 154 156 159 155 158 159 159 160 160 169 162 150 124 133 115 122 137 140 144 151 161 159 156 155 154 155 154 155 155
168 169 167 167 166 163 153 157 155 154 160 164 169 166 159 153 153 156 160 167 168 167 171 174 170 184 199 160 134 133 137 145 150 154 165 165 163 163 163 163 163 162 162
170 170 170 168 167 162 157 163 164 165 171 173 175 176 168 157 157 159 164 170 177 174 170 166 178 179 167 131 140 139 139 147 155 162 170 172 170 168 170 171 172 171 171
172 171 170 169 166 162 165 169 165 171 173 172 174 177 170 163 160 158 158 168 182 184 177 170 160 138 127 119 125 142 145 150 160 166 172 175 176 174 176 179 181 181 181
170 169 170 169 165 165 168 172 166 171 169 169 173 173 167 162 161 159 155 169 187 184 171 149 128 106 99 107 116 139 149 155 164 169 174 177 181 184 184 185 186 187 188
167 168 171 173 166 165 165 165 158 164 162 167 169 168 165 163 162 158 158 173 178 169 154 138 123 104 94 108 123 140 147 160 169 175 180 186 187 191 195 195 193 194 195
168 166 168 167 164 164 162 155 147 151 157 164 163 162 164 163 161 158 162 170 166 148 140 153 119 127 131 128 144 147 157 160 170 179 186 193 197 200 203 205 205 204 204
162 162 166 162 162 158 151 143 136 143 157 162 161 163 163 162 160 156 159 162 156 136 138 132 122 115 141 156 131 116 184 193 182 183 193 195 202 206 207 210 211 213 214
158 161 165 163 162 159 158 160 157 164 169 167 170 164 165 162 160 157 154 153 147 148 157 145 132 121 119 118 83 35 355 333 226 212 196 188 202 206 204 209 210 212 217
166 165 166 169 167 167 168 164 162 160 166 163 164 164 171 165 162 165 154 159 155 146 146 145 135 128 129 127 126 104 21 349 328 254 211 199 201 200 201 208 209 209 213
170 171 172 171 171 170 162 150 144 135 132 147 158 170 175 169 167 165 163 156 157 152 159 162 151 145 152 134 148 143 148 212 280 312 254 221 201 197 206 208 208 211 212
175 171 169 172 173 170 162 161 163 168 170 178 168 170 171 170 166 165 162 159 159 158 163 172 160 155 146 151 179 176 168 160 156 271 315 284 230 211 208 209 209 212 213
168 167 168 169 173 172 172 173 170 171 174 166 159 165 172 171 166 164 164 159 163 165 168 168 153 149 148 153 161 152 115 105 126 147 237 288 292 249 224 216 212 211 210
164 165 168 170 176 177 178 178 176 175 172 169 174 174 175 172 173 171 165 163 166 165 167 169 157 149 152 150 150 144 149 152 179 163 194 235 251 267 246 226 216 212 209
Height
1517 1519 1522 1523 1525 1526 1527 1528 1530 1531 1532 1533 1535 1536 1537 1538 1539 1540 1541 1542 1543 1543 1544 1545 1546 1546 1547 1548 1548 1549 1549 1550 1550 1551 1552 1552 1553 1553 1554 1554 1555 1555 1556
1514 1518 1522 1524 1525 1527 1528 1529 1531 1532 1534 1535 1536 1537 1538 1539 1540 1541 1542 1543 1544 1545 1546 1547 1547 1548 1549 1549 1550 1551 1552 1552 1553 1554 1554 1555 1555 1556 1556 1557 1557 1557 1558
1514 1518 1522 1524 1526 1527 1529 1530 1532 1533 1535 1536 1537 1538 1539 1540 1542 1543 1543 1544 1545 1546 1547 1548 1549 1550 1551 1552 1552 1553 1554 1555 1555 1556 1557 1557 1558 1558 1559 1559 1559 1560 1561
1515 1518 1522 1524 1526 1528 1530 1531 1533 1534 1536 1537 1538 1539 1541 1542 1543 1544 1545 1546 1547 1548 1549 1550 1551 1552 1553 1554 1555 1556 1556 1557 1557 1558 1559 1559 1560 1560 1561 1561 1562 1562 1563
1516 1519 1522 1525 1527 1529 1530 1532 1533 1535 1536 1538 1539 1541 1542 1543 1544 1545 1546 1547 1548 1550 1551 1552 1553 1554 1555 1556 1557 1558 1558 1559 1560 1560 1561 1561 1562 1563 1563 1564 1564 1565 1565
1517 1520 1523 1525 1527 1529 1531 1533 1534 1536 1537 1539 1540 1542 1543 1544 1546 1547 1548 1549 1550 1551 1553 1554 1555 1556 1557 1558 1559 1560 1560 1561 1562 1562 1563 1563 1564 1565 1565 1566 1566 1567 1568
1517 1520 1523 1526 1528 1530 1532 1533 1535 1537 1538 1540 1541 1543 1545 1546 1547 1548 1550 1551 1552 1553 1555 1556 1557 1558 1559 1560 1561 1562 1562 1563 1563 1564 1565 1565 1566 1567 1567 1568 1568 1569 1570
1517 1520 1523 1526 1528 1530 1532 1534 1536 1538 1539 1541 1542 1544 1546 1547 1548 1550 1551 1552 1554 1555 1556 1558 1559 1560 1561 1562 1563 1563 1564 1564 1565 1566 1567 1567 1568 1569 1569 1570 1570 1571 1571
1518 1520 1523 1525 1528 1530 1532 1534 1536 1538 1540 1541 1543 1545 1546 1548 1550 1551 1552 1554 1555 1556 1558 1559 1560 1562 1563 1564 1565 1565 1565 1566 1567 1567 1568 1569 1569 1570 1571 1571 1572 1573 1573
1518 1520 1522 1525 1527 1530 1532 1534 1536 1539 1541 1542 1544 1546 1547 1549 1551 1552 1554 1555 1556 1558 1559 1560 1562 1563 1564 1566 1566 1566 1567 1567 1568 1569 1570 1570 1571 1572 1572 1573 1574 1574 1575
1518 1520 1522 1524 1527 1529 1532 1534 1536 1539 1541 1543 1545 1546 1548 1550 1552 1553 1555 1556 1558 1559 1560 1562 1563 1564 1566 1567 1567 1567 1568 1569 1570 1570 1571 1571 1572 1573 1574 1574 1575 1576 1576
1515 1518 1521 1523 1526 1528 1531 1533 1536 1538 1541 1543 1545 1547 1548 1550 1552 1554 1556 1557 1559 1560 1561 1563 1564 1565 1567 1568 1568 1568 1569 1570 1571 1571 1572 1573 1573 1574 1575 1575 1576 1577 1578
1513 1516 1519 1522 1524 1527 1530 1532 1535 1538 1541 1543 1545 1547 1549 1551 1553 1555 1557 1558 1559 1561 1562 1563 1565 1566 1567 1568 1569 1569 1570 1571 1572 1572 1573 1574 1575 1575 1576 1576 1577 1578 1579
1511 1514 1517 1520 1523 1526 1529 1532 1534 1537 1540 1542 1545 1547 1549 1551 1553 1555 1557 1559 1560 1561 1563 1564 1565 1567 1568 1568 1569 1570 1571 1572 1573 1573 1574 1575 1575 1576 1577 1577 1578 1579 1579
1509 1512 1515 1518 1521 1524 1527 1531 1534 1536 1540 1542 1545 1547 1549 1551 1553 1555 1557 1559 1560 1562 1563 1564 1565 1567 1568 1569 1569 1570 1571 1572 1573 1574 1575 1575 1576 1577 1577 1578 1578 1579 1580
1506 1509 1513 1516 1519 1522 1526 1529 1532 1535 1539 1541 1544 1546 1548 1551 1553 1555 1557 1559 1560 1562 1563 1564 1566 1567 1568 1569 1570 1570 1571 1572 1573 1574 1575 1576 1576 1577 1577 1578 1579 1579 1580
1503 1507 1511 1514 1517 1520 1524 1527 1531 1534 1537 1540 1543 1546 1548 1550 1552 1555 1557 1558 1560 1561 1563 1564 1566 1567 1568 1569 1570 1571 1571 1572 1573 1575 1575 1576 1576 1577 1577 1578 1579 1579 1580
1502 1504 1508 1512 1515 1519 1523 1526 1529 1533 1536 1539 1542 1545 1547 1549 1552 1554 1556 1558 1559 1561 1562 1564 1565 1567 1568 1569 1570 1571 1571 1572 1573 1574 1575 1576 1576 1577 1577 1578 1578 1579 1579
1499 1502 1505 1509 1513 1517 1521 1524 1528 1531 1534 1538 1541 1544 1546 1549 1551 1553 1555 1557 1559 1560 1562 1563 1565 1566 1568 1569 1570 1571 1572 1572 1573 1574 1574 1575 1576 1577 1577 1578 1578 1578 1579
1497 1499 1502 1506 1510 1514 1519 1523 1526 1530 1533 1537 1540 1542 1545 1547 1549 1552 1554 1556 1558 1559 1561 1563 1564 1566 1567 1568 1569 1570 1571 1572 1573 1573 1574 1574 1575 1576 1576 1577 1577 1577 1578
1495 1498 1501 1504 1508 1511 1515 1519 1523 1527 1531 1534 1538 1541 1543 1546 1548 1551 1553 1555 1556 1558 1560 1562 1563 1565 1566 1567 1569 1570 1571 1571 1572 1572 1573 1573 1574 1575 1575 1576 1576 1577 1577
1492 1495 1499 1501 1505 1508 1513 1517 1521 1525 1529 1533 1536 1539 1542 1545 1547 1549 1551 1553 1555 1557 1559 1561 1562 1563 1565 1566 1568 1569 1569 1571 1570 1571 1572 1572 1573 1574 1574 1575 1575 1576 1576
1491 1494 1497 1499 1502 1506 1511 1515 1519 1524 1527 1530 1534 1537 1540 1543 1545 1548 1550 1552 1554 1556 1558 1559 1561 1562 1563 1565 1566 1568 1568 1568 1569 1570 1570 1571 1572 1572 1573 1573 1574 1574 1574
1490 1492 1495 1498 1501 1503 1507 1511 1515 1519 1522 1526 1531 1535 1538 1541 1544 1546 1549 1551 1553 1554 1556 1558 1560 1561 1562 1563 1565 1566 1567 1567 1568 1568 1569 1570 1570 1571 1571 1572 1572 1572 1573
1488 1491 1493 1496 1498 1501 1504 1509 1513 1517 1521 1525 1530 1533 1536 1539 1542 1545 1547 1549 1551 1553 1555 1556 1558 1559 1561 1562 1563 1564 1565 1566 1567 1567 1567 1568 1569 1569 1570 1570 1570 1571 1571
1488 1490 1492 1493 1495 1498 1501 1505 1510 1514 1518 1522 1526 1530 1533 1537 1540 1542 1545 1547 1549 1551 1553 1555 1556 1558 1559 1561 1562 1563 1564 1565 1565 1566 1566 1566 1566 1567 1568 1568 1569 1569 1569